Scilly, United Kingdom

11:37 AM BST on April 26, 2017 (GMT +0100)
Saint Mary's

Weather History for EGHE - November, 2012

Change the Weather History Date:

Monday, November 26, 2012

  Actual Average Record
Temperature  
Mean Temperature 47 °F -  
Max Temperature 49 °F 48 °F 55 °F (1998)
Min Temperature 45 °F 46 °F 42 °F (2010)
Degree Days  
Heating Degree Days 18    
Moisture  
Dew Point 41 °F    
Average Humidity 74    
Maximum Humidity 87    
Minimum Humidity 60    
Precipitation  
Precipitation 0.08 in - - ()
Sea Level Pressure  
Sea Level Pressure 29.68 in    
Wind  
Wind Speed 29 mph ()    
Max Wind Speed 38 mph    
Max Gust Speed 50 mph    
Visibility 8.2 miles    
Events Rain    
Averages and records for this station are not official NWS values.
T = Trace of Precipitation, MM = Missing Value Source: Averaged Metar Reports

Daily Weather History Graph

Daily Weather History Graph

Search for Another Location

Airport or City:

Trip Planner

Search our weather history database for the weather conditions in past years. The results will help you decide how hot, cold, wet, or windy it might be!

Date:

Astronomy

Nov. 26, 2012 Rise Set
Actual Time 7:55 AM GMT 4:29 PM GMT
Civil Twilight 7:18 AM GMT 5:06 PM GMT
Nautical Twilight 6:37 AM GMT 5:46 PM GMT
Astronomical Twilight 5:59 AM GMT 6:25 PM GMT
Moon 3:19 PM GMT 5:44 AM GMT
Length of Visible Light 9h 48m
Length of Day
8h 34m
Waxing Gibbous, 96% of the Moon is Illuminated
Nov 26
Waxing Gibbous
Nov 28
Full
Dec 6
Last Quarter
Dec 13
New
Dec 20
First Quarter

Hourly Weather History & Observations

Time (GMT) Temp. Windchill Dew Point Humidity Pressure Visibility Wind Dir Wind Speed Gust Speed Precip Events Conditions
2:50 AM 46 °F - 42 °F 81% 29.45 in 6 mi NW 27.6 mph - - Rain Light Rain Showers
5:50 AM 45 °F - 42 °F 86% 29.53 in 4 mi NW 35.7 mph - - Rain Light Rain
8:50 AM 47 °F - 42 °F 75% 29.63 in 12 mi NNW 35.7 mph - - Rain Rain
8:50 AM 46.4 °F 36.5 °F 42.8 °F 87% 29.59 in 6.2 mi NNW 34.5 mph 47.2 mph N/A   Mostly Cloudy
9:20 AM 48.2 °F - 41.0 °F 76% 29.62 in 6.2 mi NNW 31.1 mph 44.9 mph N/A Rain Light Rain Showers
9:50 AM 48.2 °F - 41.0 °F 76% 29.65 in 6.2 mi NNW 32.2 mph 44.9 mph N/A   Mostly Cloudy
10:20 AM 48.2 °F - 41.0 °F 76% 29.65 in 6.2 mi NNW 31.1 mph 44.9 mph N/A   Mostly Cloudy
10:50 AM 48.2 °F - 41.0 °F 76% 29.68 in 6.2 mi NNW 29.9 mph 46.0 mph N/A   Mostly Cloudy
11:20 AM 48.2 °F - 41.0 °F 76% 29.68 in 6.2 mi NNW 32.2 mph 43.7 mph N/A   Scattered Clouds
11:50 AM 48 °F - 40 °F 66% 29.69 in 14 mi NNW 33.4 mph - - Rain Rain
11:50 AM 48.2 °F - 41.0 °F 76% 29.68 in 6.2 mi NNW 33.4 mph 46.0 mph N/A   Scattered Clouds
12:20 PM 48.2 °F - 39.2 °F 71% 29.68 in 6.2 mi NNW 32.2 mph 43.7 mph N/A   Scattered Clouds
12:50 PM 48.2 °F - 41.0 °F 76% 29.68 in 6.2 mi NNW 32.2 mph 43.7 mph N/A   Mostly Cloudy
1:20 PM 48.2 °F - 41.0 °F 76% 29.68 in 6.2 mi NNW 33.4 mph 44.9 mph N/A   Mostly Cloudy
1:50 PM 48.2 °F - 41.0 °F 76% 29.68 in 6.2 mi NNW 38.0 mph 49.5 mph N/A   Mostly Cloudy
2:20 PM 48.2 °F - 41.0 °F 76% 29.68 in 6.2 mi NNW 35.7 mph - N/A   Mostly Cloudy
2:50 PM 49 °F - 41 °F 66% 29.71 in 16 mi NNW 35.7 mph - -   Mostly Cloudy
2:50 PM 48.2 °F - 41.0 °F 76% 29.68 in 6.2 mi NNW 35.7 mph 48.3 mph N/A   Scattered Clouds
3:20 PM 48.2 °F - 41.0 °F 76% 29.71 in 6.2 mi NNW 36.8 mph 49.5 mph N/A   Scattered Clouds
3:50 PM 48.2 °F - 41.0 °F 76% 29.71 in 6.2 mi NNW 34.5 mph 47.2 mph N/A   Scattered Clouds
4:20 PM 48.2 °F - 41.0 °F 76% 29.74 in 6.2 mi NNW 31.1 mph 46.0 mph N/A   Mostly Cloudy
5:50 PM 49 °F - 39 °F 60% 29.78 in 22 mi North 31.1 mph - -   Scattered Clouds
8:50 PM 49 °F - 40 °F 64% 29.82 in 18 mi North 28.8 mph - -   Scattered Clouds
11:50 PM 47 °F - 39 °F 66% 29.83 in 19 mi NNW 31.1 mph - - Rain Light Rain